, NV

(GMT )
Eureka Airport

Weather History for K05U - January, 2014

Change the Weather History Date:

Saturday, January 18, 2014

  Actual Average Record
Temperature  
Mean Temperature 32 °F -  
Max Temperature 48 °F - - ()
Min Temperature 17 °F - - ()
Degree Days  
Heating Degree Days 32    
Moisture  
Dew Point 17 °F    
Average Humidity 65    
Maximum Humidity 86    
Minimum Humidity 24    
Precipitation  
Precipitation 0.00 in - - ()
Sea Level Pressure  
Sea Level Pressure 30.35 in    
Wind  
Wind Speed 5 mph (SSW)    
Max Wind Speed 10 mph    
Max Gust Speed -    
Visibility 10 miles    
Events      
T = Trace of Precipitation, MM = Missing Value Source: NWS Daily Summary

Daily Weather History Graph

Daily Weather History Graph

Search for Another Location

Airport or City:

Trip Planner

Search our weather history database for the weather conditions in past years. The results will help you decide how hot, cold, wet, or windy it might be!

Date:

Astronomy

Jan. 18, 2014 Rise Set
Actual Time 7:01 AM PST 4:47 PM PST
Civil Twilight 6:32 AM PST 5:17 PM PST
Nautical Twilight 5:59 AM PST 5:50 PM PST
Astronomical Twilight 5:27 AM PST 6:22 PM PST
Moon 7:33 PM PST (1/18) 8:04 AM PST (1/18)
Length of Visible Light 10h 44m
Length of Day
9h 46m
Waning Gibbous, 94% of the Moon is Illuminated
Jan 18
Waning Gibbous
Jan 23
Last Quarter
Jan 30
New
Feb 6
First Quarter
Feb 14
Full

Hourly Weather History & Observations

Time (PST) Temp. Windchill Dew Point Humidity Pressure Visibility Wind Dir Wind Speed Gust Speed Precip Events Conditions
12:05 AM 23.0 °F 12.4 °F 17.6 °F 80% 30.36 in 10.0 mi SSW 10.4 mph - N/A   Clear
12:25 AM 24.8 °F 16.1 °F 17.6 °F 74% 30.36 in 10.0 mi SSW 8.1 mph - N/A   Clear
12:45 AM 24.8 °F 16.1 °F 15.8 °F 69% 30.36 in 10.0 mi SSW 8.1 mph - N/A   Clear
1:05 AM 23.0 °F 15.8 °F 15.8 °F 74% 30.36 in 10.0 mi SSW 5.8 mph - N/A   Clear
1:25 AM 23.0 °F 13.9 °F 14.0 °F 68% 30.37 in 10.0 mi South 8.1 mph - N/A   Clear
1:45 AM 21.2 °F 13.6 °F 15.8 °F 80% 30.37 in 10.0 mi SSW 5.8 mph - N/A   Clear
2:05 AM 21.2 °F 12.6 °F 14.0 °F 74% 30.37 in 10.0 mi SW 6.9 mph - N/A   Clear
2:25 AM 21.2 °F 14.9 °F 14.0 °F 74% 30.37 in 10.0 mi SW 4.6 mph - N/A   Clear
2:45 AM 19.4 °F - 14.0 °F 80% 30.37 in 10.0 mi Calm Calm - N/A   Clear
3:05 AM 19.4 °F 12.8 °F 14.0 °F 80% 30.36 in 10.0 mi SSW 4.6 mph - N/A   Clear
3:25 AM 19.4 °F 11.5 °F 14.0 °F 80% 30.36 in 10.0 mi SW 5.8 mph - N/A   Clear
3:45 AM 19.4 °F 12.8 °F 15.8 °F 86% 30.36 in 10.0 mi SSW 4.6 mph - N/A   Clear
4:05 AM 19.4 °F 11.5 °F 15.8 °F 86% 30.36 in 10.0 mi SW 5.8 mph - N/A   Clear
4:25 AM 19.4 °F 12.8 °F 15.8 °F 86% 30.37 in 10.0 mi SW 4.6 mph - N/A   Clear
4:45 AM 17.6 °F - 14.0 °F 86% 30.37 in 10.0 mi Calm Calm - N/A   Clear
5:05 AM 17.6 °F 10.7 °F 14.0 °F 86% 30.37 in 10.0 mi SW 4.6 mph - N/A   Clear
5:25 AM 17.6 °F 10.7 °F 12.2 °F 79% 30.37 in 10.0 mi SSW 4.6 mph - N/A   Clear
5:45 AM 17.6 °F 8.2 °F 12.2 °F 79% 30.37 in 10.0 mi SSW 6.9 mph - N/A   Clear
6:05 AM 17.6 °F 7.3 °F 14.0 °F 86% 30.37 in 10.0 mi SW 8.1 mph - N/A   Clear
6:25 AM 17.6 °F 8.2 °F 14.0 °F 86% 30.37 in 10.0 mi SW 6.9 mph - N/A   Clear
6:45 AM 17.6 °F 8.2 °F 14.0 °F 86% 30.37 in 10.0 mi SW 6.9 mph - N/A   Clear
7:05 AM 17.6 °F 7.3 °F 14.0 °F 86% 30.37 in 10.0 mi SW 8.1 mph - N/A   Clear
7:25 AM 19.4 °F 11.5 °F 14.0 °F 80% 30.37 in 10.0 mi SSW 5.8 mph - N/A   Clear
7:45 AM 19.4 °F 14.3 °F 14.0 °F 80% 30.37 in 10.0 mi SW 3.5 mph - N/A   Clear
8:05 AM 21.2 °F 13.6 °F 15.8 °F 80% 30.38 in 10.0 mi SSW 5.8 mph - N/A   Clear
8:25 AM 24.8 °F 19.1 °F 17.6 °F 74% 30.39 in 10.0 mi SW 4.6 mph - N/A   Clear
8:45 AM 26.6 °F 22.6 °F 17.6 °F 69% 30.40 in 10.0 mi SSW 3.5 mph - N/A   Clear
9:05 AM 28.4 °F 21.2 °F 17.6 °F 64% 30.41 in 10.0 mi SW 6.9 mph - N/A   Clear
9:25 AM 28.4 °F 22.2 °F 17.6 °F 64% 30.41 in 10.0 mi SW 5.8 mph - N/A   Clear
9:45 AM 32.0 °F 28.7 °F 17.6 °F 55% 30.41 in 10.0 mi SW 3.5 mph - N/A   Clear
10:05 AM 35.6 °F - 17.6 °F 48% 30.41 in 10.0 mi Calm Calm - N/A   Clear
10:25 AM 37.4 °F - 19.4 °F 48% 30.41 in 10.0 mi Calm Calm - N/A   Clear
10:45 AM 37.4 °F - 19.4 °F 48% 30.40 in 10.0 mi Calm Calm - N/A   Clear
11:05 AM 37.4 °F - 19.4 °F 48% 30.39 in 10.0 mi Calm Calm - N/A   Clear
11:25 AM 39.2 °F 37.0 °F 17.6 °F 42% 30.38 in 10.0 mi North 3.5 mph - N/A   Clear
11:45 AM 39.2 °F 35.9 °F 17.6 °F 42% 30.37 in 10.0 mi ENE 4.6 mph - N/A   Clear
12:05 PM 41.0 °F - 17.6 °F 39% 30.37 in 10.0 mi Calm Calm - N/A   Clear
12:25 PM 41.0 °F - 15.8 °F 36% 30.35 in 10.0 mi Calm Calm - N/A   Clear
12:45 PM 44.6 °F - 17.6 °F 34% 30.35 in 10.0 mi Calm Calm - N/A   Clear
1:05 PM 44.6 °F - 17.6 °F 34% 30.34 in 10.0 mi Calm Calm - N/A   Clear
1:25 PM 46.4 °F - 15.8 °F 29% 30.34 in 10.0 mi Calm Calm - N/A   Clear
1:45 PM 46.4 °F - 15.8 °F 29% 30.33 in 10.0 mi Calm Calm - N/A   Clear
2:05 PM 48.2 °F - 19.4 °F 32% 30.33 in 10.0 mi Calm Calm - N/A   Clear
2:25 PM 48.2 °F - 12.2 °F 24% 30.33 in 10.0 mi Calm Calm - N/A   Clear
2:45 PM 48.2 °F - 15.8 °F 27% 30.33 in 10.0 mi Calm Calm - N/A   Clear
3:05 PM 48.2 °F - 15.8 °F 27% 30.33 in 10.0 mi Calm Calm - N/A   Clear
3:25 PM 48.2 °F - 17.6 °F 30% 30.32 in 10.0 mi Calm Calm - N/A   Clear
3:45 PM 48.2 °F - 15.8 °F 27% 30.32 in 10.0 mi Calm Calm - N/A   Clear
4:05 PM 48.2 °F - 15.8 °F 27% 30.32 in 10.0 mi Calm Calm - N/A   Clear
4:25 PM 46.4 °F - 15.8 °F 29% 30.31 in 10.0 mi Calm Calm - N/A   Clear
4:45 PM 44.6 °F - 21.2 °F 39% 30.32 in 10.0 mi Calm Calm - N/A   Clear
5:05 PM 39.2 °F - 23.0 °F 52% 30.32 in 10.0 mi Calm Calm - N/A   Clear
5:25 PM 35.6 °F - 23.0 °F 60% 30.32 in 10.0 mi Calm Calm - N/A   Clear
5:45 PM 32.0 °F 28.7 °F 23.0 °F 69% 30.32 in 10.0 mi South 3.5 mph - N/A   Clear
6:05 PM 28.4 °F - 23.0 °F 80% 30.33 in 10.0 mi Calm Calm - N/A   Clear
6:25 PM 28.4 °F 24.6 °F 23.0 °F 80% 30.33 in 10.0 mi SSW 3.5 mph - N/A   Clear
6:45 PM 28.4 °F 23.3 °F 21.2 °F 74% 30.33 in 10.0 mi South 4.6 mph - N/A   Clear
7:05 PM 26.6 °F 20.0 °F 21.2 °F 80% 30.33 in 10.0 mi South 5.8 mph - N/A   Clear
7:25 PM 26.6 °F 22.6 °F 21.2 °F 80% 30.33 in 10.0 mi SSW 3.5 mph - N/A   Clear
7:45 PM 26.6 °F 20.0 °F 19.4 °F 74% 30.32 in 10.0 mi South 5.8 mph - N/A   Clear
8:05 PM 26.6 °F 21.2 °F 19.4 °F 74% 30.32 in 10.0 mi SSW 4.6 mph - N/A   Clear
8:25 PM 24.8 °F 19.1 °F 19.4 °F 80% 30.33 in 10.0 mi South 4.6 mph - N/A   Clear
8:45 PM 24.8 °F 20.5 °F 19.4 °F 80% 30.33 in 10.0 mi South 3.5 mph - N/A   Clear
9:05 PM 24.8 °F 16.9 °F 19.4 °F 80% 30.33 in 10.0 mi SSW 6.9 mph - N/A   Clear
9:25 PM 24.8 °F 19.1 °F 19.4 °F 80% 30.34 in 10.0 mi SSW 4.6 mph - N/A   Clear
9:45 PM 24.8 °F 19.1 °F 19.4 °F 80% 30.33 in 10.0 mi South 4.6 mph - N/A   Clear
10:05 PM 23.0 °F - 19.4 °F 86% 30.34 in 10.0 mi Calm Calm - N/A   Clear
10:25 PM 24.8 °F - 19.4 °F 80% 30.34 in 10.0 mi Calm Calm - N/A   Clear
10:45 PM 23.0 °F 15.8 °F 17.6 °F 80% 30.33 in 10.0 mi SSW 5.8 mph - N/A   Clear
11:05 PM 23.0 °F 15.8 °F 17.6 °F 80% 30.33 in 10.0 mi South 5.8 mph - N/A   Clear
11:25 PM 23.0 °F 15.8 °F 17.6 °F 80% 30.33 in 10.0 mi SSW 5.8 mph - N/A   Clear
11:45 PM 23.0 °F 17.0 °F 17.6 °F 80% 30.33 in 10.0 mi SSW 4.6 mph - N/A   Clear